FENGYUN 1C DEB

Satellite information

Favourite Embed

Satellite Type and Status

DEBRISIN ORBIT

Key statistics

Satellite FENGYUN 1C DEB at a glance.

Uptime

9496

Days in orbit

Revolutions

≈ 14.0

Per day

Orbit

SSO

Sun Synchronous Orbit

Inclination

98.6

Latest

Satellite identification and parameters

Extended collection of information and parameters for FENGYUN 1C DEB.

Object identification

Identified? True

Debris? True

Object name: FENGYUN 1C DEB

International designator: 1999-025DUG

Object number (NORAD): 36207

Object ID (CCSDS): 36207

Country: PEOPLES REPUBLIC OF CHINA (PRC)

Current information (Y/N): Y

RCS size: SMALL

Orbital parameters

Period: 102.78 minutes

Inclination: 98.6146 deg

SMA: 7268.273 km

Apoapsis: 994.352 km

Periapsis: 785.923 km

RAAN: 23.768 deg

Eccentricy: 0.0143383

Argument of periapsis: 217.1341 deg

Mean anomaly: 141.984 deg

Mean motion: 14.01057423 rev/day

Mean motion (dot): 0.00002988 rev/day2

B* drag term: 0.0018473 1/REarth

Two-line elements (TLE)

Creation date: May 8, 2025, 3:01 a.m.

Reference frame: TEME

Reference center: EARTH

Epoch: May 7, 2025, 3:45 a.m. UTC

TLE line 0: 0 FENGYUN 1C DEB

TLE line 1: 1 36207U 99025DUG 25127.15680310 .00002988 00000-0 18473-2 0 9996

TLE line 2: 2 36207 98.6146 23.7680 0143383 217.1341 141.9840 14.01057423568891

Live tracking on map

Real-time ground track for satellite FENGYUN 1C DEB.

In-orbit conjunctions

A list of the most updated potential collisions computed for object FENGYUN 1C DEB.

Target Orbit TCA Probability of collision Miss distance Type
SL-16 DEB LEO 2024-07-03 17:10:35 0.0001035518 152.0 (m) DEBRIS
FENGYUN 1C DEB SSO 2024-06-28 08:16:30 0.0002624716 29.0 (m) DEBRIS

Associated space launch

Chinese polar orbiting meteorological satellite

FENGYUN 1C DEB was lifted into orbit during the mission ‘Long March 4B | Feng Yun 1C’, on board a Long March 4B space rocket.

The launch took place on May 10, 1999, 1:33 a.m. from Launch Complex 7.

For more information about the launch, click the button.

Launch to space Long March 4B | Feng Yun 1C
Long March 4B | Feng Yun 1C

Agency: N/A

Status: Launch Successful

Launch date: May 10, 1999, 1:33 a.m. UTC

Rocket: Long March 4B

Launch pad: Launch Complex 7

Location: Taiyuan Satellite Launch Center, People's Republic of China

...

Latest news about this satellite

There are no fresh news available about this satellite. Check back as we update our databases every day.


Newsletter sign-up

Weekly statistics, charts and insights to help you stay on top of the space industry.